DELTA 1 DEB, 7174

Orbit data source: Space-Track

DELTA 1 DEB, 7174 is space debris in SSO originally from a launch on Tue, 06 Nov 1973 UTC launched from the Air Force Western Test Range (AFWTR). Debris objects in space refer to the collection of defunct objects orbiting the Earth. Examples of debris include non-operational satellites, rocket bodies, and fragments generated from explosions, collisions, or faulty payload assembly.

Loading next visibility...
Identifier
7174, 1973-086EL
Orbit
SSO
Country
Flag of USUS
Related business
Manufacturer
Unknown
Mission
Spacecraft
Bus & Motor
Unknown
Mass
Unknown
Launch date (UTC)
1973-11-06 (52 years ago)
Launch vehicle
Unknown
Launch site
Air Force Western Test Range (AFWTR)
Object type
Payload
Rocket body
Debris
Shape & HBR
Unknown shape, 0.1 m
Radar Cross Section
Small (<0.1 m²)

Expand to show TLE details & history
Last TLE update: 2 days ago

TLE from 2 days ago
0 DELTA 1 DEB
1 07174U 73086EL  25291.45010303  .00000116  00000-0  15280-2 0  9994
2 07174 102.0989 353.2538 0302321 220.5931 160.0266 12.08953862302215
Epoch: 2025-10-18T10:48Z
TLE epoch observation values (Epoch: 2025-10-18T10:48:08.901Z)
Latitude
21.26498°
Longitude
159.27267°
Altitude
1,871.967 km
Speed
6.854 km/s
True Right ascension
23h 13m 57s
True Declination
21° 09' 53"
Sunlit
Object was in full shadow at epoch
Visualization orbit readout
Latitude
Unknown
Longitude
Unknown
Altitude
Unknown
Speed
Unknown
Apparent Right ascension
Unknown
Apparent Declination
Unknown
Sunlit
N/A
Visualization observer readout
Local Sidereal Time
21:36:50
Azimuth
Unknown
Elevation
Unknown
Doppler factor
Unknown
Orbital elements
Apogee altitude
1,881.002 km
Perigee altitude
1,396.274 km
Semi-major axis
8,016.775 km
Eccentricity
0.03023
Inclination
102.0989°
RAAN
353.2538°
Arg. of periapsis
220.5931°
True anomaly
161.16925°
Mean anomaly
160.0266°
Eccentric anomaly
160.60191°
Mean motion
3.02373 °/min
Orbital period
119.06 mins
BSTAR
0.001528
Loading maneuver chart data...
Computing Atmospheric mass density...
Loading historical data...
Loading historical data...
Loading historical data...
Loading historical data...
Loading historical data...
Loading historical data...
Loading historical data...

Documentation

Showing up to 5 results
|